CZ-6A DEB, 54392

Orbit data source: Space-Track

CZ-6A DEB, 54392 is space debris in SSO originally from a launch on Fri, 11 Nov 2022 UTC launched from the Taiyaun Space Center, China (TSC). Debris objects in space refer to the collection of defunct objects orbiting the Earth. Examples of debris include non-operational satellites, rocket bodies, and fragments generated from explosions, collisions, or faulty payload assembly.

Loading next visibility...
Identifier
54392, 2022-151DQ
Orbit
SSO
Country
Flag of CNCN / PRC
Related business
Manufacturer
SAST
Mission
Spacecraft
Bus & Motor
Unknown
Mass
Unknown
Launch date (UTC)
2022-11-11 (4 years ago)
Launch vehicle
Unknown
Launch site
Taiyaun Space Center, China (TSC)
Object type
Payload
Rocket body
Debris
Shape & HBR
Unknown shape, 0.2 m
Radar Cross Section
Medium (>0.1 m² and <1 m²)

Expand to show TLE details & history
Last TLE update: 22 hours ago

TLE from 22 hours ago
0 CZ-6A DEB
1 54392U 22151DQ  26235.33128174  .00000857  00000-0  28639-3 0  9992
2 54392  98.5874 257.2262 0089574 183.5386 176.5178 14.37736503197640
Epoch: 2026-08-23T07:57Z
TLE epoch observation values (Epoch: 2026-08-23T07:57:02.742Z)
Latitude
-0.00001°
Longitude
166.33591°
Altitude
832.819 km
Speed
7.403 km/s
True Right ascension
17h 08m 54s
True Declination
0° 00' 00"
Sunlit
Object was in daylight at epoch
Visualization orbit readout
Latitude
Unknown
Longitude
Unknown
Altitude
Unknown
Speed
Unknown
Apparent Right ascension
Unknown
Apparent Declination
Unknown
Sunlit
N/A
Visualization observer readout
Local Sidereal Time
21:13:04
Azimuth
Unknown
Elevation
Unknown
Doppler factor
Unknown
Orbital elements
Apogee altitude
827.083 km
Perigee altitude
699.149 km
Semi-major axis
7,141.253 km
Eccentricity
0.00896
Inclination
98.5874°
RAAN
257.2262°
Arg. of periapsis
183.5386°
True anomaly
176.57946°
Mean anomaly
176.5178°
Eccentric anomaly
176.5487°
Mean motion
3.59651 °/min
Orbital period
100.1 mins
BSTAR
0.00028639
Loading maneuver chart data...
Computing Atmospheric mass density...
Loading historical data...
Loading historical data...
Loading historical data...
Loading historical data...
Loading historical data...
Loading historical data...
Loading historical data...

Documentation

Showing up to 5 results
|